User: anonymous   Login
Location: Wayah Bald
(35.1806°N, 83.5603°W)
Time: 14:52:42
(UTC-05:00)
Language:

Meteor 1-27 Rocket - Orbit

View from above orbital plane
View from above orbital plane
View from above satellite
View from above satellite

Ground track
Ground track

The orbit data is extracted from the following two-line orbital elements,

1 09904U 77024B   16337.46070172  .00000005  00000-0 -47639-5 0  9999
2 09904  81.2608 319.9280 0055387 160.3732 199.9587 14.06834874 35147
Epoch (UTC): 02 December 2016 11:03:24
Eccentricity: 0.0055387
inclination: 81.2608°
perigee height: 830 km
apogee height: 910 km
right ascension of ascending node: 319.9280°
argument of perigee: 160.3732°
revolutions per day: 14.06834874
mean anomaly at epoch: 199.9587°
orbit number at epoch: 3514

The dashed part of the orbit path shows where the satellite is in the earth's shadow,  

DLR